Weather Roundup
Issued by NWS Chicago, IL

Home | Current Version | Previous Version | Graphics & Text | Print | Product List | Glossary On
Versions: 1 2 3 4 5 6 7 8 9 10 11 12 13 14 15 16 17 18 19 20 21 22 23 24 25 26 27 28 29 30 31 32 33 34 35 36 37 38 39 40 41 42 43 44 45 46 47 48 49 50
000
NZUS59 KLOT 041508
HRRLOT

CHICAGO AREA WEATHER ROUNDUP
NATIONAL WEATHER SERVICE CHICAGO/ROMEOVILLE IL
1000 AM CDT TUE AUG 04 2015

NOTE: "FAIR" INDICATES FEW OR NO CLOUDS BELOW 12,000 FEET WITH NO
SIGNIFICANT WEATHER AND/OR OBSTRUCTIONS TO VISIBILITY.

* THESE STATIONS ARE NOT UNDER NWS QUALITY CONTROL. THEY ALSO MAY NOT
  REPORT WEATHER SUCH AS PRECIPITATION OR FOG.

ILZ005-006-012>014-019>023-041600-
NORTHEAST ILLINOIS

CITY           SKY/WX    TMP DP  RH WIND       PRES   REMARKS
OHARE          PTSUNNY   76  54  46 W10       29.97S
MIDWAY         PTSUNNY   79  52  38 W9        29.98R
AURORA         SUNNY     74  60  61 W6        30.00R
LANSING*       SUNNY     77  53  43 W6        29.99R
JOLIET*        SUNNY     76  57  51 W5        29.99S
WAUKEGAN       SUNNY     74  56  53 SW7       29.96S
DUPAGE AIRPORT SUNNY     75  55  49 W10       29.99R
WHEELING       SUNNY     77  51  40 W8        29.98S
KANKAKEE*      SUNNY     75  59  57 W3        30.01R
MORRIS*        SUNNY     75  59  57 W8        29.99S
LEWIS AIRPORT* SUNNY     73  56  55 NW8       30.00R
NORTHERLY IS     N/A     76  48  37 SW7         N/A
$$

WIZ051-052-058>065-066-070>072-041600-
SOUTHEAST WISCONSIN

CITY           SKY/WX    TMP DP  RH WIND       PRES   REMARKS
MILWAUKEE      MOSUNNY   76  52  43 W15       29.95S
KENOSHA*       SUNNY     74  59  59 W10       29.97S
RACINE*        SUNNY     75  54  47 W8        29.97S
BURLINGTON     SUNNY     74  52  46 W12       29.97S
WAUKESHA       SUNNY     70  54  56 W9        29.98R
WEST BEND      SUNNY     70  55  60 W10       29.96S
$$

INZ001>003-010>013-019-020-041600-
NORTHWEST INDIANA

CITY           SKY/WX    TMP DP  RH WIND       PRES   REMARKS
GARY*          PTSUNNY   77  55  47 NW8       29.98S
MICHIGAN CITY* NOT AVBL
RENSSELAER*    NOT AVBL
VALPARAISO     SUNNY     76  56  49 W6        29.99S
$$

LMZ740>746-041600-
SOUTHERN LAKE MICHIGAN

STATION/POSITION TIME  SKY/WX   TEMP WIND        PRES    VSBY
                                AIR  DIR/SP/G
                 (UTC)          (F)  (DEG/KT/KT) (MB)    (MI)
HARRISON CRIB    1400            72  250/  6/  8   N/A
BURNHAM HARBOR   1500            77  260/  6/  9   N/A
CALUMET HARBOR   1400            74  230/  2/  6   N/A
BURNS HARBOR     1400            71  280/  5/  6 1015.6R
MICHIGAN CITY    1400            70  220/ 10/ 11   N/A
$$

ABBREVIATIONS USED IN REMARKS
   TC - TEMPERATURE IN CELSIUS
  WCI - WIND CHILL INDEX
   HX - HEAT INDEX
  VSB - VISIBILITY
$$


USA.gov is the U.S. government's official web portal to all federal, state and local government web resources and services.